St. Charles, IL

6:07 PM CDT on April 26, 2017 (GMT -0500)
Saint Charles County Smartt

Weather History for KSET - April, 2014

Change the Weather History Date:

Thursday, April 24, 2014

  Actual Average (KSTL) Record (KSTL)
Temperature  
Mean Temperature 63 °F -  
Max Temperature 80 °F 69 °F 90 °F (1989)
Min Temperature 48 °F 47 °F 25 °F (1910)
Degree Days  
Heating Degree Days 2    
Growing Degree Days 13 (Base 50)    
Moisture  
Dew Point 46 °F    
Average Humidity 61    
Maximum Humidity 97    
Minimum Humidity 32    
Precipitation  
Precipitation 0.52 in - - ()
Sea Level Pressure  
Sea Level Pressure 29.73 in    
Wind  
Wind Speed 14 mph (SSE)    
Max Wind Speed 36 mph    
Max Gust Speed 46 mph    
Visibility 8 miles    
Events Rain , Thunderstorm    
Averages and records for this station are not official NWS values.
T = Trace of Precipitation, MM = Missing Value Source: NWS Daily Summary

Daily Weather History Graph

Daily Weather History Graph

Search for Another Location

Airport or City:

Trip Planner

Search our weather history database for the weather conditions in past years. The results will help you decide how hot, cold, wet, or windy it might be!

Date:

Astronomy

Apr. 24, 2014 Rise Set
Actual Time 6:12 AM CDT 7:47 PM CDT
Civil Twilight 5:44 AM CDT 8:15 PM CDT
Nautical Twilight 5:10 AM CDT 8:50 PM CDT
Astronomical Twilight 4:34 AM CDT 9:26 PM CDT
Moon 3:21 AM CDT (4/24) 3:05 PM CDT (4/24)
Length of Visible Light 14h 31m
Length of Day
13h 34m
Waning Crescent, 24% of the Moon is Illuminated
Apr 24
Waning Crescent
Apr 29
New
May 6
First Quarter
May 14
Full
May 21
Last Quarter

Hourly Weather History & Observations

Time (CDT) Temp. Dew Point Humidity Pressure Visibility Wind Dir Wind Speed Gust Speed Precip Events Conditions
12:54 AM 54.0 °F 35.1 °F 49% 29.92 in 10.0 mi SE 11.5 mph - N/A   Clear
1:54 AM 54.0 °F 35.1 °F 49% 29.89 in 10.0 mi SE 10.4 mph - N/A   Clear
2:54 AM 54.0 °F 34.0 °F 47% 29.88 in 10.0 mi SE 9.2 mph - N/A   Clear
3:54 AM 52.0 °F 34.0 °F 50% 29.88 in 10.0 mi SE 6.9 mph - N/A   Clear
4:54 AM 48.0 °F 35.1 °F 61% 29.88 in 10.0 mi ESE 8.1 mph - N/A   Clear
5:54 AM 48.0 °F 37.0 °F 66% 29.88 in 10.0 mi East 9.2 mph - N/A   Clear
6:54 AM 50.0 °F 37.0 °F 61% 29.87 in 10.0 mi ESE 12.7 mph - N/A   Clear
7:54 AM 55.0 °F 36.0 °F 49% 29.86 in 10.0 mi ESE 15.0 mph - N/A   Clear
8:54 AM 60.1 °F 36.0 °F 41% 29.83 in 10.0 mi SE 16.1 mph 24.2 mph N/A   Clear
9:54 AM 63.0 °F 37.0 °F 38% 29.82 in 10.0 mi SE 19.6 mph 24.2 mph N/A   Clear
10:54 AM 68.0 °F 41.0 °F 37% 29.81 in 10.0 mi SSE 15.0 mph 20.7 mph N/A   Clear
11:54 AM 69.1 °F 41.0 °F 36% 29.77 in 10.0 mi SSE 23.0 mph 27.6 mph N/A   Clear
12:54 PM 73.0 °F 43.0 °F 34% 29.75 in 10.0 mi SSE 17.3 mph 25.3 mph N/A   Scattered Clouds
1:54 PM 75.9 °F 44.1 °F 32% 29.69 in 10.0 mi SE 20.7 mph 26.5 mph N/A   Partly Cloudy
2:54 PM 77.0 °F 46.0 °F 33% 29.63 in 10.0 mi South 16.1 mph 25.3 mph N/A   Partly Cloudy
3:54 PM 78.1 °F 48.0 °F 35% 29.60 in 10.0 mi South 19.6 mph 25.3 mph N/A   Partly Cloudy
4:54 PM 77.0 °F 48.9 °F 37% 29.59 in 10.0 mi South 18.4 mph 29.9 mph N/A   Mostly Cloudy
5:54 PM 75.9 °F 50.0 °F 40% 29.57 in 10.0 mi SSE 13.8 mph - N/A   Overcast
6:08 PM 68.0 °F 54.0 °F 61% 29.63 in 6.0 mi West 33.4 mph 44.9 mph 0.02 in Rain Light Rain
6:11 PM 63.0 °F 54.0 °F 72% 29.63 in 2.0 mi WNW 35.7 mph 46.0 mph 0.10 in Rain , Thunderstorm Thunderstorms and Rain
6:18 PM 60.1 °F 55.9 °F 86% 29.64 in 1.0 mi WNW 32.2 mph 46.0 mph 0.15 in Rain , Thunderstorm Heavy Thunderstorms and Rain
6:28 PM 60.1 °F 55.0 °F 83% 29.65 in 3.0 mi NW 24.2 mph 34.5 mph 0.18 in Rain , Thunderstorm Rain
6:40 PM 60.1 °F 55.0 °F 83% 29.65 in 6.0 mi NW 20.7 mph 26.5 mph 0.19 in Rain Light Rain
6:54 PM 60.1 °F 55.9 °F 86% 29.66 in 3.0 mi WNW 8.1 mph - 0.21 in Rain Rain
7:54 PM 57.9 °F 55.9 °F 93% 29.64 in 4.0 mi NNE 3.5 mph - 0.21 in Rain Rain
8:54 PM 57.9 °F 57.0 °F 97% 29.63 in 10.0 mi SSE 6.9 mph - 0.09 in Rain Light Rain
9:54 PM 59.0 °F 57.0 °F 93% 29.66 in 10.0 mi West 6.9 mph - 0.00 in Rain Light Rain
10:10 PM 57.9 °F 57.0 °F 97% 29.67 in 10.0 mi WSW 6.9 mph - 0.00 in Rain Light Rain
10:54 PM 59.0 °F 57.0 °F 93% 29.66 in 8.0 mi SW 9.2 mph - 0.00 in Rain Light Rain
11:54 PM 59.0 °F 54.0 °F 83% 29.66 in 10.0 mi WNW 16.1 mph - 0.01 in Rain Light Rain